RH
33 36 36 35 34 33 32 31 31 29 27 29 29 29 25 24 24 24 23 23 24 25 27 29 32 34 34 36 37 36 32 30 29 24 19 18 18 17 17 17 17 17 17 16
38 37 36 35 34 33 33 32 34 31 30 32 31 28 24 24 22 23 23 22 22 22 22 25 28 33 34 37 38 37 34 30 29 26 18 18 18 19 19 18 17 17 16 17
40 38 37 37 36 35 35 34 34 35 35 31 32 29 23 22 22 22 22 21 21 21 19 21 24 30 35 38 39 38 36 33 28 26 22 19 19 25 19 19 18 18 19 18
41 39 38 38 38 37 38 36 37 38 38 39 33 36 25 24 22 22 23 23 22 22 21 21 23 29 34 41 42 40 37 34 29 26 25 21 26 21 21 20 21 20 20 20
46 43 42 41 40 38 38 37 38 38 41 41 37 42 27 24 22 24 24 24 24 23 24 24 25 30 36 44 45 44 45 40 36 33 29 33 33 23 23 24 23 23 22 22
50 48 46 43 42 41 41 40 41 46 46 49 38 37 31 26 24 27 26 26 26 25 25 27 27 31 38 47 48 46 49 49 45 43 37 38 39 30 34 29 25 24 24 24
50 48 46 45 44 43 42 44 53 51 52 45 41 44 31 27 28 28 28 28 27 28 29 31 32 35 41 49 53 54 51 55 53 54 51 45 38 45 48 31 27 30 26 27
58 55 46 45 43 44 46 45 58 54 53 47 47 44 31 29 28 29 29 31 32 32 33 35 35 40 44 50 57 58 59 61 63 63 61 57 52 55 50 44 35 42 36 32
61 57 50 49 49 47 50 51 47 53 56 61 47 41 34 33 32 32 31 33 35 37 39 39 41 42 42 49 58 63 65 66 68 73 73 68 64 62 59 56 55 47 46 44
60 63 55 56 56 56 56 54 60 64 66 66 52 48 42 34 34 33 35 38 40 41 41 43 46 47 47 48 55 65 70 71 72 77 79 75 71 70 69 64 63 64 58 51
65 64 62 61 61 60 63 61 61 64 68 73 68 49 41 38 37 38 42 45 45 45 45 46 50 52 54 55 58 64 70 76 79 80 83 81 78 76 73 70 69 67 67 67
70 70 73 68 64 63 65 66 66 75 72 73 72 49 42 45 42 44 46 50 48 48 50 51 53 54 55 58 61 67 73 80 84 86 90 85 82 79 76 76 72 72 72 72
76 82 89 81 72 70 69 67 66 67 72 74 79 57 48 49 51 50 48 51 50 53 56 57 54 53 57 59 62 70 79 85 92 95 95 93 87 84 80 78 76 76 76 74
87 93 87 80 77 72 70 68 69 73 88 81 75 57 56 60 60 56 54 51 55 59 57 58 57 57 60 63 67 70 80 90 98 97 94 95 95 92 84 81 81 81 81 80
97 95 95 84 82 80 81 78 82 88 88 90 59 69 58 56 58 54 51 53 54 56 54 57 61 62 65 67 70 76 85 97 97 95 96 97 93 91 89 86 86 88 90 89
92 94 90 82 79 77 80 70 84 84 80 85 79 71 62 53 56 54 56 56 57 56 58 58 62 66 68 71 74 81 94 98 96 98 98 97 96 90 87 92 93 94 93 87
91 93 96 88 81 82 79 66 65 64 60 60 69 47 45 55 63 62 59 60 59 61 61 62 66 68 73 73 75 83 92 97 98 98 96 98 97 96 94 96 97 96 88 79
92 95 98 97 90 91 56 55 58 59 51 53 62 56 62 65 65 64 64 64 63 61 63 65 66 67 72 73 77 84 91 94 96 97 97 98 98 98 95 98 95 90 81 76
88 92 97 96 90 76 56 55 56 58 50 56 67 74 77 73 70 65 65 64 63 63 64 63 63 64 68 69 75 80 86 91 94 99 99 98 98 96 96 88 87 81 79 77
80 87 93 98 96 88 55 57 63 68 73 67 73 69 69 68 67 65 63 61 60 60 58 58 59 61 63 65 71 73 80 95 99 98 99 98 97 95 89 83 81 80 79 77
86 91 93 93 97 94 66 70 77 94 77 73 66 68 70 69 67 65 63 61 58 60 60 59 62 66 68 73 78 85 89 96 99 98 98 97 98 93 89 87 82 81 79 75
83 91 95 96 98 92 70 81 86 77 72 66 66 68 66 65 65 64 61 60 59 59 60 66 69 70 72 74 80 87 93 97 99 97 98 98 98 91 85 86 86 83 80 75
91 85 89 89 80 69 68 73 72 68 64 64 65 66 66 65 65 63 60 59 61 62 65 68 72 75 80 81 87 95 99 98 98 98 98 98 91 84 89 91 87 84 79 75
86 84 90 89 68 71 71 73 71 69 69 69 71 69 70 72 69 67 67 68 68 69 69 69 71 76 83 93 95 97 97 97 98 98 97 97 89 87 89 88 84 81 79 76
79 82 84 87 74 77 75 76 76 76 72 69 70 72 71 72 71 70 71 70 70 70 71 74 78 78 80 84 86 90 96 97 97 98 98 94 92 92 92 85 85 84 81 72
69 71 77 74 71 79 75 76 78 75 70 72 72 73 73 74 73 73 76 72 68 66 68 71 77 80 84 84 85 87 86 86 89 92 94 95 95 96 96 95 94 88 78 68